TimeCDT,TemperatureF,Dew PointF,Humidity,Sea Level PressureIn,VisibilityMPH,Wind Direction,Wind SpeedMPH,Gust SpeedMPH,PrecipitationIn,Events,Conditions,WindDirDegrees,DateUTC
12:15 AM,65.5,51.8,61,29.75,10.0,SE,11.5,-,N/A,,Overcast,140,2013-10-12 05:15:00
12:35 AM,65.7,51.8,61,29.75,10.0,SE,11.5,-,N/A,,Overcast,140,2013-10-12 05:35:00
12:55 AM,65.7,52.0,61,29.74,10.0,SE,11.5,-,N/A,,Overcast,140,2013-10-12 05:55:00
1:15 AM,65.8,52.0,61,29.74,10.0,SE,11.5,17.3,N/A,,Overcast,140,2013-10-12 06:15:00
1:35 AM,65.8,52.2,61,29.74,10.0,SSE,11.5,-,N/A,,Overcast,150,2013-10-12 06:35:00
1:55 AM,66.6,52.7,61,29.74,10.0,SSE,9.2,-,N/A,,Overcast,150,2013-10-12 06:55:00
2:15 AM,66.9,53.2,61,29.74,10.0,South,12.7,-,N/A,,Overcast,170,2013-10-12 07:15:00
2:35 AM,67.3,53.8,62,29.75,10.0,SW,13.8,-,N/A,,Overcast,230,2013-10-12 07:35:00
2:55 AM,64.4,52.0,64,29.75,10.0,SSW,13.8,18.4,N/A,,Overcast,210,2013-10-12 07:55:00
3:15 AM,63.1,50.4,63,29.76,10.0,SW,12.7,19.6,N/A,,Overcast,220,2013-10-12 08:15:00
6:15 AM,51.8,43.5,73,29.83,10.0,SSW,6.9,-,N/A,,Clear,210,2013-10-12 11:15:00
6:35 AM,51.4,43.3,74,29.83,10.0,SSW,6.9,-,N/A,,Clear,200,2013-10-12 11:35:00
6:55 AM,51.1,43.0,74,29.83,10.0,SSW,8.1,-,N/A,,Clear,200,2013-10-12 11:55:00
7:15 AM,50.9,42.8,74,29.84,10.0,SSW,8.1,-,N/A,,Clear,210,2013-10-12 12:15:00
7:35 AM,50.2,42.8,76,29.85,10.0,SSW,8.1,-,N/A,,Clear,210,2013-10-12 12:35:00
7:55 AM,50.0,42.4,75,29.85,10.0,SSW,11.5,-,N/A,,Clear,200,2013-10-12 12:55:00
8:15 AM,50.0,42.8,76,29.85,10.0,SSW,8.1,-,N/A,,Clear,200,2013-10-12 13:15:00
8:35 AM,50.0,42.6,76,29.86,10.0,SSW,9.2,-,N/A,,Clear,200,2013-10-12 13:35:00
8:55 AM,51.1,42.8,73,29.86,10.0,SSW,8.1,-,N/A,,Clear,200,2013-10-12 13:55:00
9:15 AM,52.2,42.6,70,29.86,10.0,SSW,9.2,18.4,N/A,,Clear,200,2013-10-12 14:15:00
9:35 AM,53.1,42.6,68,29.86,10.0,SSW,10.4,-,N/A,,Clear,210,2013-10-12 14:35:00
9:55 AM,53.2,42.1,66,29.88,10.0,SW,12.7,17.3,N/A,,Scattered Clouds,220,2013-10-12 14:55:00
10:15 AM,54.3,42.1,63,29.88,10.0,SW,13.8,19.6,N/A,,Mostly Cloudy,220,2013-10-12 15:15:00
10:35 AM,52.9,41.2,64,29.89,10.0,SW,11.5,17.3,N/A,,Overcast,220,2013-10-12 15:35:00
10:55 AM,54.9,41.2,60,29.89,10.0,SW,11.5,-,N/A,,Mostly Cloudy,220,2013-10-12 15:55:00
11:15 AM,55.2,40.6,58,29.89,10.0,SW,10.4,18.4,N/A,,Mostly Cloudy,220,2013-10-12 16:15:00
11:35 AM,56.5,41.9,58,29.89,10.0,SW,8.1,17.3,N/A,,Mostly Cloudy,220,2013-10-12 16:35:00
11:55 AM,57.0,41.0,55,29.89,10.0,SW,11.5,17.3,N/A,,Overcast,220,2013-10-12 16:55:00
12:15 PM,55.4,40.3,57,29.91,10.0,SW,16.1,20.7,N/A,,Overcast,220,2013-10-12 17:15:00
12:35 PM,54.5,39.7,57,29.91,10.0,SW,12.7,23.0,N/A,,Overcast,220,2013-10-12 17:35:00
12:55 PM,54.5,39.2,56,29.91,10.0,SSW,15.0,20.7,N/A,,Overcast,210,2013-10-12 17:55:00
1:15 PM,54.0,39.4,58,29.92,10.0,SW,15.0,19.6,N/A,,Overcast,220,2013-10-12 18:15:00
1:35 PM,54.5,39.4,57,29.92,10.0,SSW,15.0,20.7,N/A,,Overcast,210,2013-10-12 18:35:00
1:55 PM,53.8,39.9,59,29.92,10.0,SW,9.2,19.6,N/A,,Overcast,220,2013-10-12 18:55:00
2:15 PM,53.6,39.0,58,29.93,10.0,SW,17.3,23.0,N/A,,Overcast,220,2013-10-12 19:15:00
2:35 PM,54.0,38.8,57,29.93,10.0,SW,12.7,21.9,N/A,,Overcast,220,2013-10-12 19:35:00
2:55 PM,53.8,39.0,57,29.94,10.0,SW,13.8,17.3,N/A,,Overcast,230,2013-10-12 19:55:00
3:15 PM,53.2,38.8,58,29.94,10.0,SW,15.0,21.9,N/A,,Overcast,220,2013-10-12 20:15:00
3:35 PM,53.8,38.8,57,29.95,10.0,SW,17.3,20.7,N/A,,Overcast,230,2013-10-12 20:35:00
3:55 PM,52.9,38.5,58,29.95,10.0,SW,11.5,17.3,N/A,,Overcast,230,2013-10-12 20:55:00
4:15 PM,52.7,38.7,59,29.96,10.0,SW,12.7,19.6,N/A,,Overcast,230,2013-10-12 21:15:00
4:35 PM,52.5,38.8,60,29.97,10.0,SW,11.5,-,N/A,,Overcast,230,2013-10-12 21:35:00
4:55 PM,51.8,38.1,60,29.98,10.0,SW,16.1,27.6,N/A,,Overcast,230,2013-10-12 21:55:00
5:15 PM,51.1,39.2,64,29.99,10.0,WSW,15.0,20.7,N/A,,Overcast,240,2013-10-12 22:15:00
5:35 PM,50.7,39.2,65,30.01,10.0,SW,15.0,23.0,N/A,,Overcast,230,2013-10-12 22:35:00
5:55 PM,48.9,39.6,70,30.02,10.0,WSW,16.1,25.3,N/A,,Light Drizzle,240,2013-10-12 22:55:00
6:15 PM,48.6,39.6,71,30.02,10.0,WSW,8.1,19.6,N/A,,Overcast,240,2013-10-12 23:15:00
6:35 PM,48.2,39.2,71,30.03,10.0,WSW,13.8,19.6,N/A,,Overcast,250,2013-10-12 23:35:00
6:55 PM,48.2,39.2,71,30.04,10.0,WSW,13.8,-,N/A,,Overcast,250,2013-10-12 23:55:00
7:15 PM,48.2,39.7,73,30.05,10.0,WSW,10.4,18.4,N/A,,Overcast,250,2013-10-13 00:15:00
7:35 PM,48.2,40.3,74,30.06,10.0,WSW,11.5,16.1,N/A,,Overcast,250,2013-10-13 00:35:00
7:55 PM,48.2,40.3,74,30.07,10.0,WSW,10.4,-,N/A,,Overcast,250,2013-10-13 00:55:00
8:15 PM,48.0,40.3,75,30.07,10.0,WSW,9.2,17.3,N/A,,Overcast,250,2013-10-13 01:15:00
8:35 PM,48.2,40.3,74,30.08,10.0,West,12.7,20.7,N/A,,Overcast,260,2013-10-13 01:35:00
8:55 PM,48.0,40.3,75,30.09,10.0,West,11.5,19.6,N/A,,Overcast,260,2013-10-13 01:55:00
9:15 PM,48.2,40.8,76,30.09,10.0,WSW,9.2,16.1,N/A,,Overcast,250,2013-10-13 02:15:00
9:35 PM,48.2,41.0,76,30.10,10.0,WSW,9.2,16.1,N/A,,Overcast,250,2013-10-13 02:35:00
9:55 PM,48.2,41.0,76,30.10,10.0,West,8.1,-,N/A,,Overcast,260,2013-10-13 02:55:00
10:15 PM,48.2,41.0,76,30.11,10.0,West,10.4,16.1,N/A,,Overcast,260,2013-10-13 03:15:00
10:35 PM,48.2,41.0,76,30.12,10.0,West,9.2,-,N/A,,Overcast,260,2013-10-13 03:35:00
10:55 PM,48.0,41.0,77,30.12,10.0,West,8.1,16.1,N/A,,Overcast,260,2013-10-13 03:55:00
11:15 PM,47.1,40.6,78,30.13,10.0,West,8.1,-,N/A,,Mostly Cloudy,260,2013-10-13 04:15:00
11:35 PM,45.9,40.5,81,30.14,10.0,West,6.9,-,N/A,,Scattered Clouds,260,2013-10-13 04:35:00
11:55 PM,45.1,40.3,83,30.14,10.0,West,4.6,-,N/A,,Clear,260,2013-10-13 04:55:00